TimeMST,TemperatureF,Dew PointF,Humidity,Sea Level PressureIn,VisibilityMPH,Wind Direction,Wind SpeedMPH,Gust SpeedMPH,PrecipitationIn,Events,Conditions,WindDirDegrees,DateUTC
12:53 AM,7.0,-6.0,55,30.25,10.0,SSW,25.3,35.7,N/A,,Overcast,210,2013-01-15 07:53:00
1:53 AM,7.0,-4.0,61,30.25,10.0,SSW,24.2,34.5,N/A,,Overcast,210,2013-01-15 08:53:00
2:53 AM,8.1,-2.9,61,30.26,10.0,SSW,28.8,38.0,N/A,,Overcast,210,2013-01-15 09:53:00
3:53 AM,8.6,-2.2,62,30.03,10.0,SW,23.0,32.2,N/A,,Overcast,220,2013-01-15 10:53:00
4:53 AM,9.0,-2.0,61,30.27,10.0,SSW,23.0,32.2,N/A,,Overcast,210,2013-01-15 11:53:00
5:53 AM,8.1,-2.9,61,30.29,10.0,SW,21.9,33.4,N/A,,Scattered Clouds,220,2013-01-15 12:53:00
6:53 AM,10.0,-2.0,58,30.29,10.0,SW,26.5,35.7,N/A,,Overcast,220,2013-01-15 13:53:00
7:53 AM,10.9,-0.0,61,30.30,10.0,SW,31.1,39.1,N/A,,Overcast,220,2013-01-15 14:53:00
8:53 AM,10.9,1.0,64,30.32,10.0,SSW,27.6,35.7,N/A,,Mostly Cloudy,210,2013-01-15 15:53:00
9:53 AM,14.0,3.9,64,30.30,10.0,SSW,27.6,38.0,N/A,,Overcast,210,2013-01-15 16:53:00
10:53 AM,16.0,5.0,62,30.30,10.0,SSW,29.9,39.1,N/A,,Overcast,210,2013-01-15 17:53:00
11:53 AM,17.1,6.1,62,30.28,10.0,SSW,27.6,35.7,N/A,,Overcast,210,2013-01-15 18:53:00
12:53 PM,19.0,7.0,59,30.25,10.0,SSW,27.6,40.3,N/A,,Mostly Cloudy,210,2013-01-15 19:53:00
1:53 PM,19.9,8.1,60,30.24,10.0,SSW,33.4,41.4,N/A,,Overcast,210,2013-01-15 20:53:00
2:53 PM,21.9,9.0,58,30.23,10.0,SSW,27.6,38.0,N/A,,Clear,210,2013-01-15 21:53:00
3:53 PM,21.0,9.0,60,30.24,10.0,SSW,26.5,36.8,N/A,,Scattered Clouds,210,2013-01-15 22:53:00
4:53 PM,21.0,8.1,57,30.27,10.0,SW,25.3,35.7,N/A,,Mostly Cloudy,220,2013-01-15 23:53:00
5:53 PM,19.9,8.1,60,30.29,10.0,SW,26.5,34.5,N/A,,Mostly Cloudy,220,2013-01-16 00:53:00
6:53 PM,19.9,8.1,60,30.31,10.0,SSW,23.0,32.2,N/A,,Mostly Cloudy,210,2013-01-16 01:53:00
7:53 PM,19.0,7.0,59,30.31,10.0,SSW,26.5,34.5,N/A,,Scattered Clouds,210,2013-01-16 02:53:00
8:53 PM,19.0,7.0,59,30.32,10.0,SSW,24.2,33.4,N/A,,Scattered Clouds,210,2013-01-16 03:53:00
9:53 PM,19.9,8.1,60,30.32,10.0,SSW,27.6,39.1,N/A,,Overcast,210,2013-01-16 04:53:00
11:53 PM,19.9,8.1,60,30.31,10.0,SW,18.4,32.2,N/A,,Partly Cloudy,220,2013-01-16 06:53:00